Location: Drignac
(45.1667°N, 2.0333°E)
Time: 18:12:14
(UTC+00:00)

ERS-1 Rocket - Pass Details

Date: 29 March 2020
Orbit: 753 x 757 km, 98.5° (Epoch: 25 May)

Event Time Altitude Azimuth Distance (km) Brightness Sun altitude
Exits shadow 21:28:46 49° 344° (NNW) 977 3.7 -31.0°
Drops below altitude 10° 21:32:24 10° 346° (NNW) 2,293 6.1 -31.5°
Sets 21:34:43 0° 347° (NNW) 3,222 7.1 -31.7°
